Location: Krakow
(50.0212°N, 19.9423°E)
Time: 23:42:05
(UTC+02:00)

NOAA 18 - Pass Details

Date: 21 August 2024
Orbit: 837 x 859 km, 98.9° (Epoch: 19 September)

Event Time Altitude Azimuth Distance (km) Brightness Sun altitude
Exits shadow 20:37:09 - 92° (E) 2,811 7.4 -8.3°
Reaches altitude 10° 20:38:30 10° 81° (E) 2,500 7.2 -8.5°
Maximum altitude 20:41:21 14° 50° (NE) 2,201 7.2 -8.9°
Drops below altitude 10° 20:44:11 10° 19° (NNE) 2,506 7.8 -9.3°
Sets 20:47:40 0° 356° (N) 3,446 8.9 -9.7°
